Location: Arrien
(43.3167°N, 0.1500°W)
Time: 11:53:55
(UTC+00:00)

Cosmos 1544 Rocket - Pass Details

Date: 29 May 2022
Orbit: 603 x 631 km, 82.5° (Epoch: 03 July)

Event Time Altitude Azimuth Distance (km) Brightness Sun altitude
Rises 00:17:45 0° 8° (N) 2,910 8.4 -24.9°
Reaches altitude 10° 00:20:44 10° 29° (NNE) 1,992 7.0 -24.9°
Maximum altitude 00:23:35 17° 69° (ENE) 1,590 5.9 -24.8°
Enters shadow 00:25:20 14° 97° (E) 1,746 5.8 -24.8°
